RH
51 54 59 64 67 72 69 70 70 70 75 76 76 76 76 76 77 80 82 81 80 82 82 80 82 82 81 91 86 80 81 84 90 89 83 80 80 81 78 78 84 87 88
55 62 63 66 68 70 73 69 69 74 73 76 78 80 80 78 80 83 81 78 82 81 80 82 81 73 87 87 92 87 84 83 86 90 86 84 85 81 76 79 76 71 83
58 55 64 70 78 79 77 76 75 76 75 71 75 79 81 80 81 82 84 82 81 80 79 80 81 84 88 91 85 88 92 81 86 85 84 83 84 83 83 85 84 84 73
56 66 72 72 76 76 76 76 78 79 78 79 79 78 80 79 80 82 82 82 82 79 81 78 78 80 83 84 85 97 86 86 86 86 77 81 79 83 81 83 88 85 86
68 76 73 75 79 80 78 76 72 74 75 75 78 76 80 81 80 87 82 80 83 83 79 77 74 76 80 82 90 90 87 87 85 81 80 79 78 82 81 77 79 84 88
77 78 75 74 72 75 76 74 71 74 72 74 73 70 72 60 92 94 90 82 82 82 83 79 78 87 88 90 90 86 85 89 87 81 77 75 79 78 78 75 75 89 93
86 89 92 91 89 83 76 76 76 77 76 75 73 72 72 72 80 100 99 73 76 79 82 81 76 73 85 86 96 92 89 84 81 86 87 81 84 78 82 81 78 81 82
80 79 79 84 84 81 80 78 79 76 78 77 77 77 77 72 74 94 99 78 75 75 74 74 79 84 84 85 90 89 85 86 83 67 78 78 82 81 82 80 81 83 78
54 67 67 67 71 71 73 77 77 75 75 75 71 78 78 80 81 84 95 78 68 74 70 74 76 80 88 93 89 93 88 85 91 85 82 78 79 76 78 80 85 84 78
53 56 56 65 70 72 75 79 77 77 76 69 72 75 74 75 79 87 95 67 70 68 76 71 82 95 96 93 87 91 92 85 81 80 76 85 80 80 81 84 83 79 71
55 61 67 70 74 74 78 81 80 79 78 76 75 74 76 78 78 82 90 82 68 66 67 68 64 100 100 97 95 86 88 83 83 81 76 77 80 79 76 82 83 82 79
63 67 69 72 64 60 78 77 78 80 80 79 78 73 62 73 80 81 83 97 84 80 80 75 88 100 100 100 99 95 99 96 75 75 73 75 75 71 69 74 81 84 81
70 73 74 74 71 72 77 77 70 73 68 65 57 55 53 53 58 66 77 92 99 89 80 91 100 100 100 100 100 100 99 89 69 72 72 70 68 63 69 78 81 82 83
73 75 74 75 74 72 63 59 57 56 55 55 54 54 50 52 50 58 66 87 96 94 95 88 90 96 100 99 99 100 93 96 89 72 67 64 64 67 67 67 73 80 88
72 71 69 57 59 60 61 55 55 58 59 61 59 51 49 49 47 90 83 53 54 82 90 69 80 90 89 97 99 98 97 84 88 76 75 68 64 70 72 67 71 74 77
69 60 58 57 53 53 55 57 65 71 77 79 81 75 59 62 67 100 100 100 100 100 81 69 72 90 93 97 99 98 98 93 85 81 72 81 66 71 70 69 71 71 74
71 66 61 63 58 60 60 62 61 59 71 76 80 81 81 79 80 100 100 100 100 99 76 70 68 67 77 93 97 98 96 95 88 94 85 73 63 66 68 69 69 68 70
71 79 66 65 64 62 64 60 58 60 60 58 63 71 76 80 84 98 100 99 77 90 79 72 68 68 66 85 93 98 98 98 97 90 86 66 73 64 65 64 67 65 63
72 73 72 73 72 74 75 70 59 57 60 61 59 64 67 85 100 100 100 89 77 73 61 66 69 66 66 70 90 96 97 97 95 97 91 72 64 58 60 58 59 69 67
77 84 88 86 85 83 78 76 71 71 75 79 69 67 63 62 78 79 80 83 78 89 82 55 52 62 65 68 82 86 97 98 98 95 94 92 76 61 54 59 54 57 66
78 84 89 90 90 85 84 79 77 72 71 75 72 69 87 78 70 68 64 65 88 92 96 87 57 71 58 71 72 80 84 86 91 95 96 90 86 71 57 59 55 57 55
79 86 88 90 92 92 88 88 90 90 86 86 83 85 94 79 73 80 79 78 82 86 93 80 88 96 78 62 81 88 84 88 91 93 95 94 96 79 68 59 56 63 58
65 87 90 90 92 93 92 89 91 90 90 88 86 81 80 87 89 88 88 85 89 88 87 90 88 88 72 65 68 73 77 80 87 89 90 92 90 78 85 58 56 73 61
68 79 89 89 92 94 91 87 84 88 85 78 79 78 82 84 90 89 86 90 90 88 90 96 95 83 82 79 76 81 83 85 89 87 84 87 84 92 89 65 57 66 80
63 76 89 89 90 79 71 76 87 90 88 83 84 89 91 91 90 91 92 92 91 90 92 93 95 95 96 95 92 86 91 100 96 97 87 83 80 82 82 80 72 80 82
54 66 88 88 85 85 88 85 92 92 92 90 91 96 96 95 95 95 97 96 96 96 95 97 98 97 97 97 98 100 100 100 99 100 92 87 84 83 83 81 80 81 82
Wind_Speed
11 11 9 9 7 7 6 5 5 5 5 5 5 5 6 7 6 5 5 5 6 6 5 6 6 4 4 5 5 4 3 2 1 1 1 3 2 3 3 2 5 4 4
9 4 8 7 7 7 7 6 5 4 4 4 5 6 6 7 7 6 6 6 6 6 6 7 7 4 6 4 4 4 2 2 3 5 4 2 3 3 1 1 3 3 4
7 5 5 5 5 4 3 4 3 4 5 5 6 6 7 7 7 6 6 6 7 7 7 7 7 7 6 3 3 4 2 3 4 4 4 3 3 4 4 3 3 3 4
7 10 8 10 7 6 2 5 6 6 4 5 6 6 6 6 7 7 7 7 6 6 7 9 8 8 7 7 4 6 7 4 4 4 4 4 4 5 4 5 4 3 4
11 10 11 9 7 7 6 5 4 4 3 6 6 9 8 6 5 8 5 5 5 6 7 7 8 11 10 9 5 7 6 4 4 4 3 4 4 3 4 4 4 3 2
10 6 7 7 8 9 8 5 6 6 5 5 5 5 6 4 4 8 8 7 7 7 8 8 7 5 5 8 9 12 8 6 7 4 4 5 6 5 4 4 5 3 3
5 8 10 10 11 12 10 6 5 6 6 6 4 4 5 5 6 6 7 5 7 8 9 9 8 6 9 6 5 4 9 7 4 0 2 2 5 6 5 3 0 3 3
3 3 3 5 2 4 9 8 9 7 6 6 6 7 7 4 6 4 5 6 6 8 9 11 10 9 8 8 7 7 7 6 5 5 4 2 6 5 6 3 3 4 3
2 4 3 6 4 5 8 7 7 9 9 9 9 8 10 5 7 10 5 6 8 6 7 9 9 10 8 11 9 7 7 7 6 7 4 4 11 11 7 5 4 4 4
4 4 2 3 6 6 7 8 8 9 11 9 10 9 11 11 12 10 8 7 9 5 6 9 4 8 7 17 11 10 10 9 9 6 4 4 9 7 8 2 4 4 3
7 7 7 7 8 8 8 6 8 9 10 11 13 12 13 12 13 16 12 8 8 6 4 4 5 11 8 12 13 11 13 9 11 9 7 5 4 5 4 4 5 4 3
7 8 9 9 9 9 10 10 10 11 12 12 13 12 11 12 16 16 18 18 9 5 5 4 2 9 11 9 10 9 2 6 8 8 8 8 7 7 6 6 6 4 1
6 8 8 9 9 10 11 11 10 11 10 10 10 10 9 7 7 12 16 13 10 4 4 1 1 7 8 5 9 10 6 4 9 9 8 8 9 9 9 6 6 4 3
8 8 8 9 11 10 9 9 10 9 10 9 9 9 8 9 9 7 6 3 4 5 6 4 7 6 1 4 3 4 6 5 7 9 10 9 9 8 9 8 7 6 3
8 9 10 9 9 9 8 9 10 11 9 8 10 12 11 11 11 4 4 8 7 1 5 6 4 3 5 4 4 6 7 8 8 10 8 7 10 9 8 9 7 7 6
9 9 9 10 9 9 9 9 10 12 13 11 11 10 9 15 16 7 4 6 6 1 4 7 6 6 6 7 6 7 8 11 10 10 10 6 11 10 10 9 8 7 7
11 12 10 12 11 11 9 10 12 9 13 14 14 15 13 15 17 6 10 10 8 5 7 7 8 8 7 8 8 8 10 9 11 10 9 9 9 11 13 10 10 9 8
10 12 11 10 10 10 10 10 9 11 11 10 12 12 8 12 11 9 7 5 9 6 8 9 9 9 10 9 8 9 9 9 10 11 11 10 9 12 10 10 11 9 9
11 9 10 10 11 11 11 11 11 11 10 10 11 11 12 7 1 4 11 7 9 10 11 11 11 11 10 10 8 9 10 10 10 10 11 10 9 10 12 12 11 13 12
8 12 12 9 9 9 10 10 10 10 9 8 9 9 9 11 10 10 7 8 8 9 11 13 11 8 10 10 9 9 9 10 9 10 11 9 11 11 11 12 13 12 7
6 8 14 10 8 8 8 10 10 10 10 11 10 11 11 9 12 12 12 11 9 8 4 18 8 6 10 8 9 10 11 11 9 9 10 12 11 8 10 8 10 10 10
7 7 8 9 7 8 8 8 9 10 10 10 11 11 13 10 11 11 12 10 9 9 7 7 10 4 9 6 2 4 9 10 10 11 13 14 11 13 8 8 9 7 11
7 7 8 8 8 8 7 7 8 8 9 10 10 10 11 10 10 11 11 10 8 8 7 5 3 7 6 6 7 7 9 9 9 10 13 10 13 13 6 11 9 7 9
7 8 8 8 7 7 6 7 8 10 10 10 10 10 11 11 11 12 12 10 8 5 2 4 4 10 8 9 8 9 10 10 7 10 17 15 15 10 6 10 11 10 7
7 7 8 9 9 7 8 8 8 9 9 9 10 9 10 11 12 10 11 8 6 4 2 2 5 8 10 13 15 18 17 12 9 13 11 16 17 14 10 8 10 9 9
8 8 6 7 6 7 6 7 7 8 9 9 8 8 9 9 9 9 5 6 5 5 6 4 5 8 10 9 7 9 10 15 13 15 13 13 15 13 11 11 16 10 11
Wind_Direction
189 185 196 197 203 204 228 242 246 264 273 278 281 280 276 280 284 278 274 280 287 277 268 265 258 238 263 298 5 46 334 297 61 127 134 143 115 52 19 86 149 123 90
175 194 183 180 185 196 202 214 231 262 278 270 251 256 264 270 274 273 271 275 283 296 289 255 252 245 225 239 292 204 130 152 140 172 190 169 152 162 126 12 112 121 114
103 92 56 74 61 37 2 10 324 302 289 289 281 255 244 249 259 261 260 262 261 264 268 265 267 250 230 202 229 123 345 219 182 170 180 172 145 165 197 166 166 151 114
85 66 59 52 47 52 64 48 46 10 340 303 280 257 257 258 257 249 243 245 260 267 266 263 263 271 274 230 207 161 219 219 212 194 179 146 157 176 185 180 178 215 155
56 41 51 45 31 13 357 26 37 44 14 8 1 344 325 285 1 1 320 276 255 254 250 254 260 260 260 211 182 194 201 206 237 205 189 148 168 159 216 215 161 170 114
62 47 48 36 35 14 337 343 350 7 3 352 347 337 346 344 32 45 22 344 329 308 294 284 267 174 192 149 147 162 177 188 227 226 209 179 188 173 198 173 153 169 173
35 31 3 20 351 16 310 329 333 351 333 319 322 321 310 310 357 23 10 334 313 297 293 287 280 285 169 171 150 206 147 155 150 293 272 257 143 172 160 174 114 144 172
91 110 208 135 260 30 316 327 344 322 316 305 299 291 284 266 297 307 308 294 284 282 278 285 264 264 196 182 176 195 204 185 193 218 225 193 138 154 148 139 140 119 85
345 68 345 354 336 282 279 312 305 300 302 297 294 291 275 276 285 275 267 269 280 270 285 276 282 270 207 189 177 193 202 202 108 114 87 172 146 144 147 139 183 172 194
358 356 331 252 245 286 306 293 293 289 287 282 284 294 299 293 277 262 224 268 278 285 268 266 304 6 247 178 195 184 197 203 158 137 111 98 136 152 148 194 192 196 204
348 338 331 332 322 302 290 298 314 311 301 289 284 283 282 276 274 268 238 252 258 260 273 287 289 17 330 221 201 202 196 185 167 158 163 161 169 171 195 206 233 225 195
332 325 321 319 314 313 308 300 292 289 285 281 278 276 269 258 250 252 248 219 229 217 257 271 341 4 321 267 238 203 86 220 162 168 180 188 185 196 198 199 215 245 175
313 303 300 299 295 290 283 281 279 269 267 273 273 275 279 272 268 259 249 221 195 207 234 143 315 283 299 276 232 274 209 205 177 185 196 200 187 196 184 188 192 200 136
311 306 304 295 281 273 269 267 266 269 273 276 280 286 305 327 324 329 56 107 282 242 238 244 222 227 287 282 262 211 225 222 221 198 201 208 189 188 180 182 186 171 158
311 302 290 288 307 312 292 303 313 305 309 313 325 316 295 291 292 237 313 309 293 317 302 285 242 278 273 244 233 228 215 216 218 222 223 209 184 187 175 182 183 177 188
320 312 312 307 307 310 309 303 283 288 292 292 289 273 298 288 281 196 166 136 136 86 231 263 254 212 245 250 232 232 227 214 216 223 223 233 187 186 175 184 179 183 192
320 315 317 314 306 299 306 303 301 294 283 280 271 269 264 253 285 228 187 180 189 193 260 258 260 253 223 227 230 227 229 223 220 219 224 232 188 181 174 183 186 184 197
319 309 298 300 307 303 305 296 297 297 297 297 295 280 280 284 286 213 217 236 255 221 248 248 241 237 245 226 223 220 222 218 221 220 221 221 205 183 183 187 184 189 196
311 304 305 305 300 305 298 293 289 280 285 296 296 297 316 296 231 210 181 236 250 242 248 229 234 236 238 245 209 217 222 215 209 217 227 224 222 191 188 192 185 179 184
295 294 285 282 282 288 292 287 298 306 306 291 292 291 290 302 303 295 249 247 248 262 275 265 265 243 230 234 232 208 214 221 217 219 217 233 229 196 201 184 186 183 175
306 294 288 277 274 277 282 288 283 287 291 296 298 297 301 294 288 285 281 268 240 239 266 284 276 313 281 222 246 225 212 214 214 223 242 231 229 225 201 187 180 182 183
309 302 301 311 282 288 295 301 300 295 290 292 292 294 280 278 280 279 277 277 279 239 232 241 254 221 285 301 283 299 262 222 211 202 216 206 230 230 186 201 178 174 187
320 316 308 306 300 294 292 299 308 310 304 301 302 302 299 293 290 292 287 284 280 287 289 296 324 276 283 279 286 283 271 261 232 219 210 214 199 210 186 191 186 164 184
333 328 309 303 303 305 316 323 311 309 301 302 303 300 297 294 289 286 289 286 272 272 297 331 334 294 304 293 283 274 269 259 255 247 227 213 207 201 174 186 181 174 176
319 322 309 310 298 292 316 319 319 314 314 308 307 307 307 300 298 299 289 284 288 308 351 304 278 286 281 276 271 269 270 262 245 247 239 222 212 200 186 179 174 168 166
331 318 300 303 307 327 328 339 320 312 312 312 308 307 308 311 309 307 328 341 346 334 328 326 327 321 324 314 303 300 290 253 238 231 230 220 211 191 195 178 161 153 156